Location: Silent Lake
(44.9206°N, 78.0708°W)
Time: 06:37:04
(UTC-04:00)

Daily predictions for brighter satellites

Satellite Brightness Start Highest point End
(mag) Time Altitude Azimuth Time Altitude Azimuth Time Altitude Azimuth
ATLAS 3B R/B 3.5 21:13:44 10° S 21:20:37 37° ESE 21:27:23 10° NE
SL-16 R/B 3.8 21:19:04 10° SW 21:24:22 41° NW 21:29:42 10° NNE
Cosmos 1812 Rocket 3.6 21:23:56 10° N 21:28:20 77° E 21:32:46 10° SSE
H-2A R/B 4.0 21:26:21 10° E 21:28:49 14° ENE 21:31:17 10° NNE
PSLV R/B 3.8 21:27:56 10° WSW 21:31:19 43° S 21:34:43 10° ESE
Tsikada Rocket 4.1 21:25:09 10° S 21:31:33 78° E 21:37:55 10° N
YAOGAN 6 3.9 21:32:17 10° SE 21:35:30 28° ENE 21:38:46 10° N
CZ-2C R/B 2.5 21:35:13 10° SSW 21:37:12 26° W 21:39:13 10° NW
SPOT 1/Viking Rocket 4.3 21:32:42 10° SE 21:37:24 37° ENE 21:42:07 10° N
SPOT 5 2.7 21:33:11 10° SSE 21:37:29 62° ENE 21:41:45 10° N
Terra 3.9 21:37:15 10° E 21:39:46 14° ENE 21:42:16 10° NNE
USA 234 3.7 21:35:39 10° ESE 21:42:02 57° NNE 21:48:27 10° NW
H-2A R/B 2.6 21:38:23 10° S 21:42:37 59° W 21:46:59 10° NNW
deb Chang Zheng 4 3.8 21:38:37 10° N 21:43:02 75° WNW 21:47:22 10° SSW
Lacrosse 4 Rocket 1.9 21:39:49 10° S 21:43:30 35° ESE 21:47:15 10° NE
CZ-4 SHROUD 3.2 21:41:09 10° SSE 21:44:18 77° ENE 21:47:28 10° N
ERS-1 Rocket 3.8 21:40:08 10° S 21:45:00 51° W 21:49:56 10° NNW
Lacrosse 5 4.3 21:42:39 10° NW 21:46:28 21° N 21:50:18 10° NE
Cosmos 1515 3.7 21:45:27 10° S 21:49:16 71° E 21:53:08 10° NNE
Meteor 2-12 Rocket 4.5 21:43:10 10° N 21:49:17 89° E 21:55:21 10° S
Cosmos 1626 Rocket 4.5 21:46:13 10° SSW 21:50:32 52° WNW 21:54:51 10° N
PSLV R/B 3.1 21:47:49 10° SSE 21:50:55 89° ENE 21:54:03 10° NNW
Cosmos 1603 4.5 21:48:14 10° SW 21:53:44 57° WNW 21:59:16 10° NNE
Cosmos 1066 Rocket 4.4 21:50:29 10° S 21:56:05 60° E 22:01:50 10° NNE
Atlas Centaur 2 3.9 21:51:59 10° SW 21:57:49 27° S 22:03:24 13° SE
MetOp-A 4.2 21:52:48 10° SSE 21:58:09 78° ENE 22:03:32 10° NNW
Envisat 3.3 21:55:14 10° S 22:00:17 70° WSW 22:05:23 10° NNW
Cosmos 1634 Rocket 4.0 21:54:51 10° N 22:01:04 75° E 22:07:14 10° SSE
Cosmos 407 Rocket 3.7 21:58:34 10° S 22:03:40 53° ESE 22:08:44 10° NNE
USA 245 4.2 21:58:44 11° SSE 22:04:04 63° ENE 22:08:45 10° N
Meteor 1-22 Rocket 4.3 21:58:52 10° N 22:04:28 68° ENE 22:09:46 13° SSE
Cosmos 1943 Rocket 2.8 21:59:09 10° NNW 22:04:30 45° ENE 22:08:55 15° SE
CZ-4C R/B 4.4 22:02:51 15° SE 22:05:44 32° ENE 22:09:18 10° N
SL-8 R/B 4.1 22:01:34 10° WNW 22:06:23 64° NNE 22:11:12 10° E
Cosmos 1900 4.5 22:03:58 10° SSW 22:08:59 56° ESE 22:14:02 10° NE
Cosmos 1953 Rocket 3.6 22:06:38 10° S 22:10:59 64° E 22:15:24 10° NNE
Cosmos-2242 4.0 22:07:59 10° N 22:12:00 33° ENE 22:14:41 18° SE
SL-27 R/B 3.7 22:11:35 19° SE 22:12:32 21° E 22:15:08 10° NE
Cosmos 1943 3.2 22:08:17 10° SSW 22:13:57 88° WNW 22:19:43 10° NNE
Cosmos 1953 3.4 22:14:58 10° NNE 22:18:29 29° ENE 22:20:32 19° ESE
Cosmos 2346 Rocket 4.5 22:12:25 10° S 22:18:37 89° E 22:24:46 10° N
Lacrosse 5 rocket 4.2 22:17:02 10° NW 22:19:37 16° N 22:22:17 10° NNE
Cosmos 2279 Rocket 4.1 22:14:36 10° N 22:20:49 63° E 22:25:44 17° SSE
SL-08 RB Rocket 3.9 22:19:22 18° SSE 22:22:36 60° ENE 22:27:03 10° N
Cosmos 1954 Rocket 4.3 22:19:49 11° S 22:24:39 47° ESE 22:29:44 10° NNE
Cosmos 1346 Rocket 2.9 22:27:23 10° SSW 22:31:18 73° WNW 22:35:15 10° N
CZ-4C R/B 4.0 22:32:03 12° ESE 22:32:03 12° ESE 22:33:53 10° E
Cosmos 1842 3.4 22:35:17 24° SSE 22:37:28 56° E 22:41:20 10° NNE
SeaSat 1 3.2 22:35:39 16° S 22:39:23 47° WSW 22:44:10 10° NW
ARGOS 3.2 22:36:49 18° S 22:40:57 79° WSW 22:46:26 10° NNW
SL-23 DEB 4.1 22:38:18 10° SW 22:44:19 62° SSE 22:48:00 10° ENE
Cosmos 1758 Rocket 3.8 22:40:28 11° SSW 22:44:39 69° W 22:49:00 10° N
COSMOS 2455 4.4 22:39:09 10° WSW 22:44:44 39° NW 22:50:22 10° NNE
Meteor 1-21 4.3 22:39:58 11° S 22:45:38 89° E 22:51:30 10° N
CARTOSAT-1 3.8 22:45:04 27° SE 22:47:13 56° ENE 22:51:28 10° N
Geosat 4.3 22:45:42 10° NE 22:50:34 47° ESE 22:53:29 22° S
ISS -1.4 22:48:44 10° W 22:51:44 32° NNW 22:54:44 10° NE
CZ-4B R/B 4.2 22:48:04 10° N 22:53:03 54° WNW 22:58:07 10° SSW
Cosmos 2369 Rocket 3.6 22:49:57 10° NW 22:54:52 31° WSW 22:59:14 12° SSW
Cosmos 1766 4.2 22:56:49 10° NNW 23:00:38 44° W 23:03:02 20° SSW
Landsat 7 3.8 22:58:24 26° S 23:01:04 78° WSW 23:05:50 10° NNW
Cosmos 1023 Rocket 4.5 22:59:56 21° S 23:03:26 68° ESE 23:08:41 10° NNE
Cosmos 1850 Rocket 4.2 23:01:15 27° S 23:03:52 53° ESE 23:08:56 10° NNE
CZ-4 R/B 4.5 22:59:23 10° N 23:04:18 59° WNW 23:09:14 10° SSW
Cosmos 1570 Rocket 4.0 23:00:07 10° NNW 23:05:31 85° ENE 23:08:12 31° SSE
Cosmos 1758 3.3 23:02:26 10° N 23:06:35 82° W 23:08:15 35° S
H-2A R/B 1.9 23:04:51 29° SSE 23:07:26 89° WSW 23:12:35 10° NNW
PSLV R/B 4.2 23:05:23 10° W 23:08:18 33° SSW 23:08:18 33° SSW
Cosmos 1140 Rocket 3.4 23:07:18 21° SSW 23:10:51 78° ESE 23:16:07 10° NNE
ATLAS 3B R/B 3.5 23:03:33 10° SW 23:11:09 60° NW 23:18:32 10° NNE
Cosmos 1842 Rocket 3.5 23:09:22 10° N 23:13:46 76° E 23:15:21 39° SSE
Spot 4 3.8 23:11:57 34° SSE 23:14:02 81° ENE 23:18:51 10° NNW
IGS 5A 3.4 23:12:42 38° SSE 23:14:14 88° WSW 23:18:26 10° NNW
Terra 1.8 23:14:42 32° S 23:16:52 78° WSW 23:21:40 10° NNW
Cosmos 1340 3.4 23:17:42 36° ESE 23:17:55 36° E 23:21:26 10° NNE
NOSS 3-2 (A) 4.0 23:20:30 31° SSE 23:22:15 37° ESE 23:28:11 10° NE
Lacrosse 4 Rocket 3.6 23:18:53 10° WSW 23:22:17 25° NW 23:25:46 10° N
Cosmos 1544 3.1 23:19:28 10° N 23:23:13 72° E 23:23:55 54° SE
Cosmos 2084 4.2 23:19:36 10° NW 23:23:31 40° WSW 23:24:37 33° SSW
SAR-Lupe-2 4.2 23:23:38 36° SW 23:24:37 47° W 23:28:06 10° NNW
USA 234 3.6 23:21:49 29° SSE 23:25:05 53° SW 23:31:30 10° WNW
Cosmos 1470 2.9 23:23:24 10° N 23:27:15 60° E 23:27:56 50° SE
Cosmos 1805 3.8 23:24:52 10° NNW 23:28:42 51° W 23:29:59 35° SSW
Cosmos 1092 Rocket 4.0 23:27:08 30° S 23:30:25 75° E 23:36:42 10° NNE
Lacrosse 5 3.7 23:26:31 10° NW 23:30:52 27° NNE 23:35:11 10° ENE
BREEZE-M DEB (TANK) 3.4 23:29:03 10° W 23:31:04 32° N 23:32:06 20° NE
Aureole 2 4.1 23:29:25 10° NNW 23:32:15 69° WNW 23:32:15 69° WNW
H-2A R/B 4.5 23:30:27 10° ENE 23:31:54 14° E 23:31:54 14° E
Cosmos 614 Rocket 3.9 23:30:46 33° S 23:33:09 78° ESE 23:38:24 10° NNE
COSMOS 2406 3.4 23:33:42 15° SSW 23:38:30 73° WNW 23:44:16 10° NNE
Nadezhda 4 Rocket 4.2 23:34:52 23° SSW 23:38:58 73° W 23:45:20 10° N
DMSP B5D2-2 4.3 23:37:02 10° N 23:42:17 67° WNW 23:45:23 25° SSW
Cosmos 1076 Rocket 4.5 23:44:25 31° E 23:44:36 31° E 23:48:22 10° NNE
Atlas Centaur 2 4.2 23:40:49 10° WSW 23:46:02 22° SSW 23:46:02 22° SSW
Cosmos 2221 2.7 23:42:40 10° N 23:46:56 56° E 23:47:39 49° ESE
Cosmos 1943 Rocket 3.5 23:43:18 10° NW 23:48:00 29° WSW 23:50:26 21° SW
SL-8 R/B 3.8 23:44:14 10° WNW 23:48:57 54° SSW 23:49:39 50° S
Cosmos 1766 Rocket 4.5 23:49:03 33° ESE 23:49:26 33° E 23:53:28 10° NNE
Cosmos 2082 Rocket 3.8 23:49:20 18° E 23:49:30 18° E 23:53:10 10° ENE
COSMOS 2487 2.7 23:54:06 59° WSW 23:54:33 67° WNW 23:58:09 10° NNE
Cosmos 1953 4.3 23:51:44 10° NW 23:54:48 21° W 23:56:18 17° WSW
